Theta_e
306 302 300 304 306 306 305 303 301 304 307 304 303 303 306 309 310 309 310 311 313 316 321 325 325 323 322 321 321 321 320 320 318 316 314 314 313 313 312 311 311 311 311 311
305 299 306 308 307 304 303 301 301 304 307 306 304 303 307 309 309 310 310 311 312 315 318 321 323 321 320 319 319 320 319 319 318 316 316 316 314 313 311 309 309 309 309 309
301 304 307 304 303 301 302 301 301 301 305 306 304 301 305 309 311 311 311 311 312 313 314 318 320 319 318 317 318 318 319 318 317 317 316 314 312 309 307 307 306 307 308 309
303 307 304 304 302 304 298 304 303 302 299 295 305 295 303 306 307 309 310 311 311 312 314 316 319 318 317 317 318 318 318 318 317 317 313 311 308 305 307 306 306 306 307 307
301 303 300 299 302 305 301 304 301 301 299 299 299 297 300 305 304 306 308 309 310 312 313 313 316 319 317 317 317 317 317 317 316 315 314 311 310 309 307 306 305 305 306 306
302 307 302 301 301 301 304 299 300 300 298 291 297 297 297 301 302 304 307 308 310 312 312 313 315 320 317 317 317 316 315 314 315 314 314 313 312 307 305 305 304 304 305 305
301 301 305 304 298 302 300 296 289 289 289 289 298 296 299 303 304 304 306 308 310 312 313 313 313 317 317 316 315 314 313 311 313 313 313 313 311 308 306 305 304 304 303 303
294 292 300 305 301 297 299 297 290 283 285 290 297 292 298 305 307 307 308 309 310 311 313 313 314 315 316 315 314 313 311 310 311 312 312 312 310 306 306 306 304 304 303 302
292 292 300 301 302 301 297 293 299 291 292 288 292 298 303 306 304 305 305 307 308 309 311 312 313 314 314 314 313 311 309 309 309 310 310 308 307 306 306 305 304 302 302 301
295 290 297 298 299 300 297 300 290 293 283 282 289 292 293 298 300 303 303 303 304 307 309 310 311 312 313 313 312 311 309 307 306 306 306 304 305 305 304 303 301 300 300 299
298 294 293 296 294 293 294 293 293 293 291 285 284 289 301 298 300 301 301 301 303 305 306 308 311 311 312 312 310 308 306 305 304 304 303 303 302 302 302 300 298 298 298 298
296 293 289 292 297 298 296 293 294 288 286 290 289 288 302 301 301 301 300 300 304 306 307 308 310 311 310 310 309 306 305 304 303 302 302 301 301 300 298 296 296 296 294 296
295 290 284 286 291 295 291 293 293 293 292 286 284 286 299 299 299 299 299 300 303 305 305 307 309 309 309 309 307 305 303 303 302 301 300 300 299 297 294 293 293 293 293 293
294 290 286 282 286 289 286 290 292 290 286 286 287 289 293 295 295 297 299 301 303 304 304 305 306 307 308 307 305 304 303 303 301 300 299 298 296 294 293 291 291 291 292 291
294 286 288 289 289 289 288 288 289 288 289 285 288 288 292 295 296 298 300 300 300 301 302 304 305 306 304 304 303 303 301 300 300 299 296 295 294 292 291 289 290 291 291 290
294 286 287 284 288 288 286 288 289 289 289 289 289 289 295 297 298 298 299 299 299 300 302 304 304 304 302 301 300 299 299 298 298 295 294 292 291 289 289 289 288 288 289 289
289 287 284 280 286 286 282 287 288 289 291 290 287 291 296 295 296 298 298 299 300 301 302 303 303 304 301 299 298 297 297 296 294 292 291 291 289 288 287 286 286 286 287 288
286 284 284 280 282 273 285 291 291 289 290 292 293 294 295 296 298 300 301 301 300 300 301 303 305 305 301 298 298 297 296 293 291 290 287 287 286 285 285 284 284 286 287 286
289 285 280 277 277 281 284 287 287 287 287 293 292 294 294 297 298 298 303 302 301 301 301 302 304 306 302 297 295 292 289 288 286 285 285 285 285 283 283 283 284 284 284 284
287 286 284 280 275 273 284 290 293 293 284 293 293 294 295 297 292 295 302 301 300 299 301 300 301 301 301 296 292 286 285 285 285 285 285 285 285 283 282 283 283 284 284 284
282 283 279 279 277 281 289 292 294 282 285 296 297 297 296 295 297 300 301 295 293 297 298 299 299 300 293 293 288 285 285 285 285 285 285 284 284 282 282 283 283 283 283 283
280 280 280 281 278 276 292 292 287 293 297 297 297 298 297 299 299 299 295 290 290 291 297 298 295 294 294 292 287 285 285 285 285 285 284 283 282 282 282 282 282 283 283 282
280 284 283 283 283 292 295 294 296 297 297 296 297 298 300 298 297 294 291 290 289 290 297 297 295 292 293 292 289 286 284 285 284 283 281 281 281 281 282 281 282 282 282 281
286 289 285 285 289 290 292 296 296 297 297 298 299 300 300 293 289 289 288 288 290 291 296 296 293 290 289 289 288 285 285 285 284 282 281 281 280 280 280 281 282 281 281 281
286 287 284 285 288 290 292 294 295 295 299 299 299 300 299 297 294 297 294 291 291 292 294 295 292 289 287 286 285 285 284 284 282 282 281 281 280 280 280 281 282 282 284 284
286 284 283 283 288 289 289 291 294 294 297 299 298 299 299 298 297 297 296 296 295 293 293 293 291 288 285 285 284 284 285 285 284 282 281 281 281 281 281 281 280 281 281 280
Wind_Speed
17 12 16 18 18 20 19 20 20 18 16 15 17 20 19 18 17 19 17 20 20 21 19 19 18 17 16 16 16 16 15 14 11 9 9 8 7 6 5 5 5 5 5 5
13 17 18 16 16 12 16 19 21 19 18 17 18 22 20 20 21 19 19 20 22 19 21 20 21 19 18 17 16 17 16 16 12 9 8 7 7 6 6 5 5 5 5 5
18 14 4 13 12 16 18 21 20 22 20 22 20 28 25 25 28 25 21 20 21 22 21 21 21 20 18 18 18 17 17 17 14 12 8 7 7 6 5 7 6 5 5 5
17 17 19 19 21 15 19 17 18 17 15 17 18 21 17 19 17 10 17 17 17 20 20 20 22 21 18 17 16 17 17 17 15 14 12 14 10 9 7 7 6 6 6 6
12 13 10 12 17 16 19 9 14 13 17 18 18 16 12 7 8 5 15 12 12 14 16 19 20 23 20 17 16 15 16 16 15 14 14 12 12 7 8 7 10 8 7 6
19 8 7 8 5 7 8 7 14 14 13 16 16 16 11 7 15 12 12 13 13 16 11 15 17 20 17 16 16 15 16 16 16 15 15 15 13 12 10 10 9 8 7 6
20 24 21 13 14 12 9 11 8 8 11 15 15 14 13 11 10 6 10 11 11 15 13 13 11 16 15 16 16 14 15 16 15 16 15 15 13 13 13 12 8 9 8 6
8 12 13 17 23 12 14 16 9 8 12 14 10 10 11 14 16 17 13 15 16 14 12 10 11 8 11 14 16 15 15 17 15 15 15 13 14 10 9 11 8 7 7 7
6 7 4 0 4 13 12 13 11 14 10 7 10 19 17 15 12 7 8 11 13 13 12 12 7 8 9 13 15 14 15 17 14 14 12 12 12 12 10 10 9 7 8 8
1 6 8 9 4 8 11 3 5 3 6 16 15 19 14 7 8 9 10 15 15 16 11 6 7 8 9 12 13 15 15 15 13 11 10 11 12 11 10 10 10 9 9 9
3 5 5 5 12 14 8 11 6 3 6 5 11 11 5 13 9 8 13 18 12 16 19 19 5 7 9 11 12 12 12 14 13 11 10 10 11 11 11 10 9 9 9 10
6 5 9 13 1 3 9 11 13 10 11 8 11 12 18 18 13 14 21 19 12 15 16 18 14 8 8 11 13 16 16 17 15 13 12 12 12 11 10 10 11 10 9 7
3 5 6 11 16 14 10 14 8 9 10 16 14 14 17 19 21 21 23 18 12 13 15 15 15 13 8 10 13 14 15 16 16 16 15 13 13 13 11 11 10 10 9 8
2 9 10 13 14 4 11 14 14 13 11 16 18 21 22 23 23 24 21 19 16 14 13 15 13 13 11 8 12 14 14 15 16 16 15 15 15 13 12 11 11 11 10 9
6 8 11 18 18 18 19 20 23 22 21 21 22 24 23 22 24 23 20 15 16 17 14 9 13 12 10 7 8 9 11 12 14 16 13 13 13 14 13 12 11 9 8 8
4 6 4 15 14 15 18 24 25 22 24 23 24 26 23 23 22 20 17 17 17 17 17 11 10 11 9 7 7 9 11 13 12 14 15 12 13 14 13 12 11 9 9 8
9 6 7 19 13 13 14 22 23 24 23 21 21 24 23 24 19 15 18 15 16 13 13 12 12 10 8 7 8 10 12 12 11 13 13 14 13 15 13 12 11 11 9 8
11 10 9 16 14 18 18 23 24 23 23 23 23 20 21 19 17 14 13 10 10 13 14 13 11 8 6 3 4 5 9 11 12 11 13 12 12 14 12 11 10 9 7 6
17 15 10 10 12 16 25 19 16 20 21 22 19 21 22 18 10 11 6 5 6 9 10 10 11 11 8 6 8 8 9 10 13 14 14 14 14 14 14 13 11 9 10 10
19 19 13 14 17 18 22 19 19 14 18 22 20 22 18 8 7 6 3 5 7 8 7 9 11 11 7 6 10 12 12 13 14 14 14 13 13 14 13 13 11 10 9 9
11 13 17 16 17 19 23 20 18 18 13 11 23 7 5 6 6 10 7 6 6 9 9 8 9 10 5 9 10 10 11 11 10 12 12 12 12 13 13 12 10 11 10 10
16 14 13 15 19 20 16 18 13 12 13 13 10 19 4 6 6 3 2 3 5 8 8 8 6 5 3 9 10 8 9 9 12 13 13 13 13 10 10 13 11 11 10 11
17 16 13 16 13 14 8 7 8 14 11 14 13 11 15 6 1 3 3 2 3 6 6 6 7 6 3 5 9 10 10 14 14 14 15 15 13 12 12 12 11 10 9 10
18 17 13 15 16 20 21 15 18 19 22 18 15 14 6 3 3 2 1 3 3 4 7 6 5 4 3 3 6 10 13 13 13 14 15 13 14 14 12 9 10 9 9 9
14 16 16 19 19 18 22 19 15 18 24 22 17 11 7 8 6 5 7 6 3 3 4 4 3 4 5 6 8 10 13 14 14 14 14 12 10 11 11 9 9 9 8 8
14 20 15 18 17 19 18 21 20 19 20 21 11 11 7 5 5 4 2 2 1 1 3 3 4 5 5 7 8 9 11 14 15 14 11 10 10 10 9 9 8 13 12 11
Wind_Direction
194 217 223 235 233 255 282 286 282 286 289 272 271 275 273 268 256 219 233 248 233 221 214 197 195 191 195 186 184 180 174 167 167 165 165 160 160 151 133 118 116 106 95 85
220 234 248 247 269 278 279 269 268 272 273 278 287 277 277 272 264 252 240 234 246 225 217 206 189 196 200 194 193 186 180 175 183 178 175 171 151 160 138 124 110 99 98 93
239 234 233 243 256 264 257 263 271 279 298 292 285 274 264 252 239 245 245 235 240 237 231 215 191 198 195 203 198 195 187 180 188 177 156 141 129 134 159 153 146 117 109 99
254 252 264 251 259 260 271 271 270 280 275 274 283 291 290 296 296 223 232 235 237 252 243 234 192 195 202 212 203 203 193 185 188 175 166 166 170 174 177 163 133 131 124 113
220 215 229 243 260 263 262 293 293 279 274 286 267 269 286 224 215 357 346 204 246 259 259 255 226 187 194 199 208 209 201 193 186 180 178 175 190 162 148 149 157 143 135 127
251 237 192 265 290 251 265 255 254 252 258 259 266 258 286 328 35 25 19 12 357 327 264 252 248 173 187 197 202 207 207 204 187 189 192 188 185 160 167 165 168 161 147 137
237 244 251 219 244 229 234 250 257 241 218 251 273 257 236 62 59 31 351 355 6 358 352 322 271 168 188 198 199 204 214 216 198 197 193 190 175 177 175 170 177 161 149 143
235 214 216 218 223 249 236 227 234 256 266 283 2 261 259 45 53 32 31 18 7 15 6 343 320 297 194 204 204 205 218 219 200 202 193 186 174 180 176 179 158 168 149 132
257 223 103 112 177 216 237 238 258 273 270 256 260 267 271 282 83 58 19 6 8 5 8 343 310 259 227 205 206 205 221 222 203 203 192 180 174 174 169 156 155 153 135 134
100 260 181 158 262 225 254 92 210 196 235 239 246 245 255 97 23 11 347 328 327 323 323 335 303 269 222 213 201 199 213 222 198 194 185 178 176 165 155 154 152 155 139 136
246 240 150 216 218 247 204 216 209 290 245 266 268 259 251 6 350 325 322 322 343 334 331 320 295 247 232 210 185 187 200 208 194 187 179 169 169 160 155 154 145 142 145 144
72 304 257 226 30 284 262 252 225 236 242 238 276 276 310 315 325 320 316 314 348 327 326 320 327 292 225 220 209 194 201 206 195 188 181 168 160 154 150 147 141 143 150 138
96 239 263 255 237 220 246 252 246 278 269 262 277 274 292 298 299 306 303 311 334 327 323 324 317 305 260 226 216 213 209 203 188 189 178 167 157 150 146 133 149 139 150 135
333 256 258 264 284 28 277 262 262 255 255 264 261 281 291 296 301 302 305 325 320 309 317 327 318 308 289 245 236 221 209 206 192 190 184 167 157 145 145 145 150 148 148 145
243 254 266 265 270 280 284 277 267 263 267 261 274 272 277 290 293 296 308 302 301 300 306 317 320 313 294 262 234 222 203 198 198 188 176 159 143 146 138 143 149 144 139 130
205 251 219 264 257 253 257 259 264 271 270 275 275 278 285 289 289 290 293 300 307 306 317 326 308 301 292 279 230 209 203 199 189 171 168 160 151 133 143 143 133 140 138 137
198 223 249 271 278 256 255 252 254 257 256 251 248 252 261 265 269 288 301 308 303 330 335 316 314 285 268 240 205 214 196 187 174 165 165 158 147 133 135 130 139 144 152 147
243 249 255 264 280 260 260 260 268 280 274 269 261 267 268 280 285 283 287 307 338 334 325 323 323 298 257 227 218 206 185 163 164 157 140 135 139 131 132 138 136 137 129 103
224 235 237 242 256 269 275 272 284 283 282 273 274 280 274 283 303 288 70 34 341 331 322 318 310 301 257 194 154 129 144 149 140 140 143 151 145 137 142 143 144 134 121 115
222 224 235 240 254 260 268 279 279 297 272 260 256 255 260 279 258 273 58 350 348 325 324 327 309 288 279 190 155 147 156 154 157 159 150 144 146 141 135 138 134 125 132 139
250 207 222 234 248 261 270 283 283 262 273 341 333 297 278 252 296 356 27 3 332 318 320 336 338 308 167 162 145 161 156 164 145 137 138 136 128 127 129 131 135 137 142 138
251 244 227 230 244 260 263 284 275 313 316 306 317 318 233 275 287 48 16 326 332 323 323 353 14 10 142 158 152 152 158 136 137 135 134 123 120 123 137 135 135 143 144 143
245 258 270 265 266 270 289 278 259 284 299 300 283 282 256 272 340 324 300 304 309 308 327 13 16 22 27 151 152 144 135 140 140 135 129 127 128 139 137 137 144 147 155 156
260 254 242 255 262 269 275 313 304 298 295 271 272 268 334 45 213 193 210 257 274 309 338 18 22 48 76 111 134 130 140 141 141 134 132 136 139 138 143 153 157 161 168 169
275 293 282 272 269 285 284 288 305 314 316 292 261 273 284 178 217 204 195 214 216 238 305 12 67 90 101 109 129 141 137 137 136 137 139 138 135 140 150 158 164 169 174 176
246 251 255 262 269 271 285 300 300 297 279 288 253 234 220 253 204 215 221 244 228 291 348 32 91 125 126 134 139 148 147 146 143 143 143 141 143 151 156 148 123 65 89 70